Flag for Greece Weather past 2 weeks in Rhodes, Rhodes, Greece

Now
59 °F

Sunny.


Feels Like: 59 °F
Forecast: 60 / 71 °F
Wind: No wind

Location: Rhodes Airport

Current Time: Apr 27, 2015 at 8:51:22 AM

Latest Report: Apr 27, 2015 at 8:20 AM


Visibility: 10 mi

Pressure: 29.95 "Hg

Humidity: 68%

Dew point: 48 °F

Location of RhodesLocation

Historic Weather in Rhodes — Graph

°F

Rhodes temperature yesterday

Maximum temperature yesterday: 70 °F (at 4:50 PM)
Minimum temperature yesterday: 57 °F (at 1:50 AM)
Average temperature yesterday: 63 °F

Past Weeks' High & Low Weather Summary

 TemperatureHumidityPressure
High72 °F (Apr 13, 3:50 PM)100% (Apr 14, 5:50 AM)30.24 "Hg (Apr 14, 5:50 AM)
Low54 °F (Apr 23, 5:50 AM)34% (Apr 22, 1:50 PM)29.80 "Hg (Apr 20, 3:50 PM)
Average62 °F67%30.04 "Hg
* Reported Apr 12 7:20 AM — Apr 27 7:20 AM, Rhodes, Weather by CustomWeather, © 2015

Note: Actual official high and low records may vary slightly from our data, if they occured in-between our weather recording intervals... More about our weather records

Advertising

Rhodes weather history for previous 24 hours

 ConditionsComfort  
Time TempWeatherWind HumidityBarometerVisibility
7:20 AM
Mon, Apr 27
55 °FSunny.No wind67%29.95 "Hg10 mi
6:50 AM55 °FClear.No wind67%29.92 "Hg10 mi
6:20 AM55 °FPassing clouds.No wind67%29.92 "HgN/A
5:50 AM55 °FPassing clouds.No wind67%29.92 "HgN/A
5:20 AM57 °FPassing clouds.No wind72%29.92 "HgN/A
4:50 AM57 °FPassing clouds.No wind72%29.92 "HgN/A
4:20 AM57 °FPassing clouds.No wind72%29.92 "HgN/A
3:50 AM57 °FPassing clouds.No wind72%29.92 "HgN/A
3:20 AM59 °FPassing clouds.No wind88%29.92 "HgN/A
2:50 AM59 °FPassing clouds.No wind88%29.95 "HgN/A
2:20 AM59 °FPassing clouds.No wind82%29.95 "HgN/A
1:50 AM59 °FPassing clouds.3 mph82%29.95 "HgN/A
1:20 AM59 °FPassing clouds.2 mph82%29.95 "HgN/A
12:50 AM59 °FPassing clouds.2 mph82%29.98 "HgN/A
12:20 AM59 °FPassing clouds.2 mph88%29.98 "HgN/A
11:50 PM
Sun, Apr 26
59 °FPassing clouds.3 mph88%29.98 "HgN/A
11:20 PM61 °FPassing clouds.5 mph77%29.98 "HgN/A
10:50 PM61 °FPassing clouds.5 mph77%29.98 "HgN/A
10:20 PM61 °FPassing clouds.3 mph72%29.98 "HgN/A
9:50 PM61 °FPassing clouds.3 mph72%29.98 "HgN/A
9:20 PM61 °FPassing clouds.5 mph68%29.98 "HgN/A
8:50 PM61 °FPassing clouds.2 mph68%29.98 "HgN/A
8:20 PM63 °FPassing clouds.2 mph64%29.98 "HgN/A
7:50 PM64 °FPassing clouds.3 mph60%29.98 "HgN/A
7:20 PM68 °FPassing clouds.5 mph46%29.98 "HgN/A
5:50 PM70 °FPassing clouds.8 mph38%29.98 "HgN/A
5:20 PM70 °FPassing clouds.9 mph46%29.98 "HgN/A
4:50 PM70 °FPassing clouds.10 mph46%29.98 "HgN/A
4:20 PM68 °FPassing clouds.8 mph49%29.98 "HgN/A
3:50 PM68 °FPassing clouds.10 mph49%29.98 "HgN/A
3:20 PM68 °FPassing clouds.12 mph49%29.98 "HgN/A
2:50 PM68 °FPassing clouds.12 mph49%30.01 "HgN/A
2:20 PM68 °FPassing clouds.10 mph53%30.01 "HgN/A
1:50 PM68 °FPassing clouds.10 mph53%30.04 "HgN/A
1:20 PM66 °FPassing clouds.9 mph56%30.04 "HgN/A
12:50 PM66 °FPassing clouds.12 mph56%30.04 "HgN/A
12:20 PM66 °FPassing clouds.10 mph52%30.04 "HgN/A
11:50 AM66 °FPassing clouds.14 mph52%30.04 "HgN/A
11:20 AM66 °FPassing clouds.10 mph49%30.04 "HgN/A
10:50 AM66 °FPassing clouds.8 mph49%30.04 "HgN/A
10:20 AM64 °FPassing clouds.10 mph52%30.04 "HgN/A
9:50 AM64 °FPassing clouds.8 mph52%30.04 "HgN/A
9:20 AM63 °FPassing clouds.8 mph68%30.04 "HgN/A
8:50 AM63 °FPassing clouds.8 mph68%30.04 "HgN/A
8:20 AM59 °FPassing clouds.92 mph77%30.01 "HgN/A
Weather by CustomWeather, © 2015

See weather overviewHow to use our weather pages